Regional Weather Roundup
Issued by NWS

Home | Current Version | Previous Version | Text Only | Print | Product List | Glossary Off
Versions: 1 2 3 4 5 6 7 8 9 10 11 12 13 14 15 16 17 18 19 20 21 22 23 24 25 26 27 28 29 30 31 32 33 34 35 36 37 38 39 40 41 42 43 44 45 46 47 48 49 50

000
ASUS43 KLSX 121907
RWRMO

WEATHER SUMMARY FOR MISSOURI
NATIONAL WEATHER SERVICE SPRINGFIELD MO
100 PM CST FRI FEB 12 2016

NOTE: "FAIR" INDICATES FEW OR NO CLOUDS BELOW 12,000 FEET WITH NO
       SIGNIFICANT WEATHER AND/OR OBSTRUCTIONS TO VISIBILITY.
       CURRENT SKY AND/OR WEATHER CONDITIONS ARE NOT AVAILABLE FOR
       CHILLICOTHE AND FARMINGTON.

MOZ001>031-035>038-043-044-053-054-122000-
...NORTHERN AND WESTERN MISSOURI...

CITY           SKY/WX    TMP DP  RH WIND       PRES   REMARKS
KANSAS CTY INT MOSUNNY   34  16  47 N14G22    30.43S WCI  25
KANSAS C DTWN  SUNNY     38  17  42 N14G21    30.43S WCI  30
LEE`S SUMMIT   MOSUNNY   37  21  52 NW17      30.41S WCI  27
ST JOSEPH      SUNNY     32  14  47 N17       30.48R WCI  21
CHILLICOTHE      N/A     33  15  47 NW14G22   30.42F WCI  23
KIRKSVILLE     MOSUNNY   28  14  55 NW13G21   30.39S WCI  17

$$
MOZ066>068-077>081-088>096-101>105-122000-
...SOUTHWEST MISSOURI...

CITY           SKY/WX    TMP DP  RH WIND       PRES   REMARKS
SPRINGFIELD    SUNNY     43  22  43 N14G28    30.32F
JOPLIN         SUNNY     43  25  49 N18       30.38F

$$
MOZ032>034-039>042-045>050-055>058-069>072-122000-
...CENTRAL MISSOURI...

CITY           SKY/WX    TMP DP  RH WIND       PRES   REMARKS
COLUMBIA       MOSUNNY   33  22  63 NW18G29   30.36S WCI  22
JEFFERSON CITY MOSUNNY   36  22  56 NW18G24   30.38R WCI  26
ROLLA          LGT RAIN  37  23  56 NW15      30.30R WCI  28
SEDALIA        MOSUNNY   37  21  52 NW15G26   30.39F WCI  28
WHITEMAN AFB   MOSUNNY   37  22  54 N17       30.38F WCI  27
WARRENSBURG    SUNNY     36  21  55 NW12      30.40F WCI  27
OSAGE BEACH    MOSUNNY   39  19  45 NW8G21    30.35S

$$
MOZ051-052-059>065-122000-
...EAST CENTRAL MISSOURI...

CITY           SKY/WX    TMP DP  RH WIND       PRES   REMARKS
ST LOUIS INTL  CLOUDY    32  23  69 NW13      30.31R WCI  22
SPIRIT OF STL  CLOUDY    34  23  64 NW16G24   30.32R WCI  24
ST CHARLES     CLOUDY    29  22  75 NW16      30.32S WCI  17

$$
MOZ072>076-082>087-097>100-106>115-122000-
...SOUTH CENTRAL AND SOUTHEAST MISSOURI...

CITY           SKY/WX    TMP DP  RH WIND       PRES   REMARKS
CAPE GIRARDEAU PTSUNNY   40  24  53 N17G24    30.27F
FARMINGTON     CLOUDY    36  23  59 NW12      30.27S WCI  28
POPLAR BLUFF   SUNNY     45  25  45 N9G17     30.25F
WEST PLAINS    SUNNY     47  23  38 N10G21    30.27F

$$


USA.gov is the U.S. government's official web portal to all federal, state and local government web resources and services.